Погода в Сыге 2

Россия / Удмуртская Республика     57°52′02″N   53°33′50″E
темп.,
°C
ветер,
м/с
пор.,
м/с
влажн.,
%
обл.,
%
осадки,
мм/ч
давл.,
гПа
погр.,
м
14 апреля, ср
ср1401:00+5ююз279787 0.0 1031106
04:00+3юз239882 0.0 103239
07:00+7юз35100100 0.1 1031215
10:00+9юз349394 0.1 1030346
13:00+14ююз357367 0.0 1029611
16:00+16ююз366941 0.0 1028991
19:00+11ююв24945 0.0 102654
22:00+8ю26925 0.0 102591
15 апреля, чт
чт1501:00+7ю289320 0.0 1024132
04:00+6ююз24956 0.0 102463
07:00+7ююз279210 0.0 1022163
10:00+13юз467157 0.0 1021477
13:00+16юз456071 0.0 10201087
16:00+17зюз356250 0.1 10191295
19:00+12зсз228411 1.3 101926
22:00+7св51188100 2.9 1022508
16 апреля, пт
пт1601:00+5св51191100 1.1 1023547
04:00+4св5118493 1.7 1025695
07:00+3св51174100 0.1 1026713
10:00+6св58540 0.1 1027861
13:00+8св46440 0.0 10271096
16:00+9св45410 0.0 10271178
19:00+6св24583 0.0 102787
22:00+2ссв26700 0.0 1028104
17 апреля, сб
сб1701:00+1ссв27730 0.0 1028147
04:000ссв24750 0.0 102981
07:00+2с25660 0.0 1029170
10:00+7с35495 0.0 10281136
13:00+9ссз354585 0.0 10271790
16:00+10ссз454365 0.0 10261843
19:00+7ссз26585 0.0 1025149
22:00+3сз28734 0.0 1025151
18 апреля, вс
вс1801:00+3сз3127811 0.0 1024323
04:00+2сз311845 0.0 1025367
07:00+3с498158 0.0 1025969
10:00+3ссв584722 0.1 10271431
13:00+4ссв5835100 0.0 10282110
16:00+5ссв5832100 0.0 10292345
19:00+2св48425 0.0 1031768
22:00−1св39602 0.0 1033327